STARLINK-32041

Last updated on Wed Jul 31 2024 00:02:04 GMT+0000 (Coordinated Universal Time)

1 60202U 24124V 24212.20992802 -.00621328 00000+0 -12486-1 0 9991 2 60202 53.1603 180.2455 0000815 110.2582 249.8514 15.48371947 5421

Satellite not in orbit

STARLINK-32041